CAPE
0 0 0 0 0 0 0 0 0 0 0 0 0 0 0 0 0 0 0 0 0 0
0 0 0 0 0 0 0 0 0 0 0 0 0 0 0 0 0 0 0 0 0 0
0 0 0 0 0 0 0 0 0 0 0 0 0 0 0 0 0 0 0 0 0 0
0 0 0 0 0 0 0 0 0 0 0 0 0 0 0 0 0 0 0 0 0 0
0 0 0 0 0 0 0 0 0 0 0 0 0 0 0 0 0 0 0 0 0 0
0 0 0 0 0 0 0 0 0 0 0 0 0 0 0 0 0 0 0 0 0 0
0 0 0 0 0 0 0 0 0 0 0 0 0 0 0 0 0 0 0 0 0 0
0 0 0 0 0 0 0 0 0 0 0 0 0 0 0 0 0 0 0 0 0 0
0 0 0 0 0 0 0 0 0 0 0 0 0 0 0 0 0 0 0 0 0 0
0 0 0 0 0 0 0 0 0 0 0 0 0 0 0 0 0 0 0 0 0 0
0 0 0 0 0 0 0 0 0 0 0 0 0 0 0 0 0 0 0 0 0 0
0 0 0 0 0 0 0 0 0 0 0 0 0 0 0 0 0 0 0 0 0 0
0 0 0 0 0 0 0 0 0 0 0 0 0 0 0 0 0 0 0 0 0 0
0 0 0 0 0 0 0 0 0 0 0 0 0 0 0 0 0 0 0 0 0 0
CIN
0 0 0 0 0 0 0 0 0 0 0 0 0 0 0 0 0 0 0 0 0 0
0 0 0 0 0 0 0 0 0 0 0 0 0 0 0 0 0 0 0 0 0 0
0 0 0 0 0 0 0 0 0 0 0 0 0 0 0 0 0 0 0 0 0 0
0 0 0 0 0 0 0 0 0 0 0 0 0 0 0 0 0 0 0 0 0 0
0 0 0 0 0 0 0 0 0 0 0 0 0 0 0 0 0 0 0 0 0 0
0 0 0 0 0 0 0 0 0 0 0 0 0 0 0 0 0 0 0 0 0 0
0 0 0 0 0 0 0 0 0 0 0 0 0 0 0 0 0 0 0 0 0 0
0 0 0 0 0 0 0 0 0 0 0 0 0 0 0 0 0 0 0 0 0 0
0 0 0 0 0 0 0 0 0 0 0 0 0 0 0 0 0 0 0 0 0 0
0 0 0 0 0 0 0 0 0 0 0 0 0 0 0 0 0 0 0 0 0 0
0 0 0 0 0 0 0 0 0 0 0 0 0 0 0 0 0 0 0 0 0 0
0 0 0 0 0 0 0 0 0 0 0 0 0 0 0 0 0 0 0 0 0 0
0 0 0 0 0 0 0 0 0 0 0 0 0 0 0 0 0 0 0 0 0 0
0 0 0 0 0 0 0 0 0 0 0 0 0 0 0 0 0 0 0 0 0 0
Wind_Speed
17 12 11 13 11 11 12 11 13 12 12 13 12 9 9 7 6 5 5 8 5 3
15 14 12 13 12 11 10 8 12 13 12 11 11 11 10 8 8 7 5 6 6 3
16 15 12 11 13 13 11 11 12 12 13 13 12 12 12 8 6 8 4 4 6 4
12 13 12 11 12 11 12 13 13 14 13 13 13 12 11 10 10 10 8 6 7 7
10 12 11 11 12 11 12 12 14 14 12 14 14 13 14 13 11 12 11 10 8 8
12 13 13 12 13 13 13 13 12 14 15 15 14 14 13 13 12 13 12 12 12 11
14 15 14 13 14 13 13 13 13 14 13 13 14 14 14 13 12 11 10 11 11 11
12 14 14 14 14 14 14 13 13 13 13 13 12 11 14 13 12 12 11 10 11 11
5 12 12 12 13 11 12 12 12 13 13 13 10 18 23 17 13 13 13 12 10 10
8 8 11 12 13 13 13 12 13 12 12 12 12 20 23 24 11 13 12 12 11 10
9 5 6 13 14 13 12 14 12 12 13 12 11 20 23 23 10 11 12 12 13 13
10 7 3 7 11 10 11 10 10 10 12 11 10 19 22 20 9 9 10 10 11 12
9 7 5 5 7 8 8 9 7 8 10 13 9 19 21 20 7 8 6 7 10 20
8 6 5 3 4 5 7 6 7 7 5 7 10 13 23 25 10 9 8 8 9 9
Wind_Direction
184 188 185 179 174 182 188 187 177 184 188 183 177 173 174 186 193 174 173 174 176 171
189 186 185 181 180 181 177 176 173 181 183 174 179 173 176 189 185 178 172 176 177 163
192 194 183 173 181 180 173 165 169 178 185 180 178 178 177 180 164 176 169 160 167 168
194 189 181 175 178 173 164 168 172 182 186 181 184 182 185 181 173 184 170 157 171 181
174 185 184 177 170 170 173 172 179 181 182 185 188 182 190 185 182 181 181 176 166 177
171 182 181 172 175 176 176 179 180 183 191 189 187 186 193 190 181 187 187 175 181 178
173 180 183 173 177 176 184 183 186 190 191 192 192 191 186 186 185 183 182 178 182 177
176 176 178 174 177 180 186 186 188 189 191 191 192 190 186 186 181 180 179 176 181 182
217 170 179 172 174 178 184 184 184 189 187 185 192 195 193 182 182 185 183 183 182 180
331 194 174 168 178 182 183 181 190 190 188 195 197 197 195 195 185 186 189 186 180 175
348 330 174 168 178 180 184 185 188 189 191 188 197 196 196 192 183 187 189 186 182 181
341 330 224 183 178 176 174 181 182 185 188 189 195 194 193 187 172 180 181 180 178 176
323 314 273 192 176 162 182 179 171 178 189 192 184 192 190 178 170 170 168 168 173 178
316 306 281 192 128 163 148 146 156 160 160 170 174 186 188 180 173 171 163 172 170 174